CZ-3A DEB, 36967

Orbit data source: Space-Track

CZ-3A DEB, 36967 is space debris in HEO originally from a launch on Fri, 02 Feb 2007 UTC launched from the Xichang Space Center, China (XSC). Debris objects in space refer to the collection of defunct objects orbiting the Earth. Examples of debris include non-operational satellites, rocket bodies, and fragments generated from explosions, collisions, or faulty payload assembly.

Loading next visibility...
Identifier
36967, 2007-003AD
Orbit
HEO
Country
Flag of CNCN / PRC
Related business
Manufacturer
Unknown
Mission
Spacecraft
Bus & Motor
Unknown
Mass
Unknown
Launch date (UTC)
2007-02-02 (19 years ago)
Launch vehicle
Unknown
Launch site
Xichang Space Center, China (XSC)
Object type
Payload
Rocket body
Debris
Shape & HBR
Unknown shape, 0.3 m
Radar Cross Section
Medium (>0.1 m² and <1 m²)

Expand to show TLE details & history
Last TLE update: 3 days ago

TLE from 3 days ago
0 CZ-3A DEB
1 36967U 07003AD  26170.85549542  .00000056  00000-0  38974-1 0  9992
2 36967  27.4997  51.4409 7384934 203.8264  87.3665  1.84749656  3465
Epoch: 2026-06-19T20:31Z
TLE epoch observation values (Epoch: 2026-06-19T20:31:54.804Z)
Latitude
0.00006°
Longitude
-164.56991°
Altitude
32,923.867 km
Speed
2.465 km/s
True Right ascension
03h 25m 56s
True Declination
0° 00' 00"
Sunlit
Object was in daylight at epoch
Visualization orbit readout
Latitude
Unknown
Longitude
Unknown
Altitude
Unknown
Speed
Unknown
Apparent Right ascension
Unknown
Apparent Declination
Unknown
Sunlit
N/A
Visualization observer readout
Local Sidereal Time
00:50:22
Azimuth
Unknown
Elevation
Unknown
Doppler factor
Unknown
Orbital elements
Apogee altitude
42,401.66 km
Perigee altitude
959.388 km
Semi-major axis
28,058.661 km
Eccentricity
0.73849
Inclination
27.4997°
RAAN
51.4409°
Arg. of periapsis
203.8264°
True anomaly
156.16616°
Mean anomaly
87.3665°
Eccentric anomaly
122.89498°
Mean motion
0.46179 °/min
Orbital period
779.58 mins
BSTAR
0.038974
Loading maneuver chart data...
Computing Atmospheric mass density...
Loading historical data...
Loading historical data...
Loading historical data...
Loading historical data...
Loading historical data...
Loading historical data...
Loading historical data...

Documentation

Showing up to 5 results
|